Meteo Giornale » Osservazioni meteo Francia » Villacoublay

ore: 16:00 - Osservazioni Meteo Villacoublay
Lat. 48° 46' N Lon. 2° 12' E Alt. 177 metri s.l.m.

molto_nuvoloso Europe/Paris

7 °C

Molto Nuvoloso

Temp. 24 Ore

0 °C

7 °C

Nord-Ovest

16.7 Km/h

Dew point 3 °C

Umidità 75 %

Visibilità  10 Km

Il sole sorge alle ore 08:35

Il sole tramonta alle ore 17:27

Data e Ora Cielo e Fenomeni T °C DP °C Um. % Pres. hPa Vis. km Vento km/h
Oggi h: 16:00 molto_nuvoloso Molto Nuvoloso 7 3 75 1025 10 NO 16.7
Oggi h: 15:30 molto_nuvoloso Molto Nuvoloso 6 3 81 1025 10 N 11.1
Oggi h: 15:00 molto_nuvoloso Molto Nuvoloso 7 4 81 1024 10 NO 14.8
Oggi h: 14:30 coperto_pioggia Pioggia Debole Foschia 6 4 86 1024 5 N 16.7
Oggi h: 13:30 coperto Coperto 7 4 81 1024 10 O/NO 14.8
Oggi h: 13:00 molto_nuvoloso Molto Nuvoloso 6 4 86 1024 10 O/NO 18.5
Oggi h: 12:30 molto_nuvoloso Molto Nuvoloso 6 4 86 1024 10 O/NO 16.7
Oggi h: 12:00 molto_nuvoloso Molto Nuvoloso 6 4 86 1024 10 O 14.8
Oggi h: 11:30 coperto Coperto 5 4 93 1023 10 O 13
Oggi h: 11:00 molto_nuvoloso Molto Nuvoloso 4 2 86 1023 10 NO 11.1
Oggi h: 10:30 coperto_pioggia Pioggia Debole 4 2 86 1023 8 N/NO 18.5
Oggi h: 10:00 sereno Sereno 4 2 86 1022 10 O/NO 18.5
Oggi h: 09:30 molto_nuvoloso Molto Nuvoloso 3 2 93 1021 10 O/NO 14.8
Oggi h: 09:00 molto_nuvoloso Molto Nuvoloso 3 2 93 1021 10 O/NO 14.8
Oggi h: 08:30 sereno Sereno 3 3 100 1020 10 O/NO 13
Oggi h: 08:00 sereno Sereno 4 3 93 1020 10 O/NO 14.8
Oggi h: 07:30 molto_nuvoloso Molto Nuvoloso 4 4 100 1020 10 O/NO 16.7
Oggi h: 07:00 molto_nuvoloso Molto Nuvoloso 4 4 100 1020 10 O/NO 14.8
Oggi h: 06:30 coperto Coperto 4 4 100 1020 10 O 16.7
Oggi h: 06:00 molto_nuvoloso Molto Nuvoloso 4 4 100 1020 10 O/NO 14.8
Oggi h: 05:00 molto_nuvoloso Molto Nuvoloso 4 4 100 1019 10 O 14.8
Oggi h: 04:00 coperto_pioggia Pioggia Debole 4 4 100 1019 8 O/NO 14.8
Oggi h: 03:30 coperto Coperto 4 4 100 1019 10 O 14.8
Oggi h: 03:00 molto_nuvoloso Molto Nuvoloso 3 3 100 1019 7 O 16.7
Oggi h: 02:30 foschia Foschia 3 3 100 1018 5 O/NO 9.3
Oggi h: 02:00 foschia Foschia 3 3 100 1018 4 O/NO 11.1
Oggi h: 01:30 coperto_pioggia Pioviggine Leggera Foschia 3 3 100 1018 2 O/NO 9.3
Oggi h: 01:00 foschia Foschia 3 3 100 1018 2 O/NO 11.1
Oggi h: 00:30 foschia Foschia 3 3 100 1019 3 NO 11.1
Oggi h: 00:00 foschia Foschia 3 3 100 1018 3 NO 7.4
Ieri h: 23:30 foschia Foschia 2 2 100 1018 1 O 9.3
Ieri h: 23:00 foschia Foschia 2 2 100 1018 3 O 13
Ieri h: 22:30 foschia Foschia 2 2 100 1018 2 O 13
Ieri h: 22:00 foschia Foschia 1 1 100 1018 3 O/SO 14.8
Ieri h: 21:30 foschia Foschia 1 1 100 1018 3 O/SO 13
Ieri h: 21:00 foschia Foschia 1 1 100 1018 4 SO 14.8
Ieri h: 20:30 foschia Foschia 1 1 100 1018 5 SO 11.1
Ieri h: 20:00 coperto Coperto 1 1 100 1018 7 SO 16.7
Ieri h: 19:30 coperto Coperto 1 0 93 1018 6 SO 16.7
Ieri h: 18:30 coperto_pioggia Pioviggine Leggera Foschia 0 0 100 1019 4 SO 16.7
Ieri h: 18:00 coperto Coperto 0 -0 100 1019 6 SO 16.7
Ieri h: 17:30 coperto_pioggia Pioviggine Leggera Foschia 0 -0 100 1019 4 S/SO 18.5
Ieri h: 17:00 coperto_pioggia Pioggia Leggera Congelantesi Foschia -0 -0 100 1019 5 S/SO 18.5